User: anonymous   Login
Location: Unspecified
(0.0000°N, 0.0000°E)
Time: 17:01:32
(UTC+00:00)
Language:

Nimbus 3 - Orbit

View from above orbital plane
View from above orbital plane
View from above satellite
View from above satellite

Ground track
Ground track

The orbit data is extracted from the following two-line orbital elements,

1  3890U 69037A   17264.85066505 -.00000019 +00000-0 +43625-4 0  9995
2  3890 099.9396 174.2351 0039412 174.7307 212.9415 13.42514496372676
Epoch (UTC): 21 September 2017 20:24:57
Eccentricity: 0.0039412
inclination: 99.9396°
perigee height: 1070 km
apogee height: 1129 km
right ascension of ascending node: 174.2351°
argument of perigee: 174.7307°
revolutions per day: 13.42514496
mean anomaly at epoch: 212.9415°
orbit number at epoch: 37267

The dashed part of the orbit path shows where the satellite is in the earth's shadow,  

DLR